sat.trackr.live / text

‹ back to catalog

KANOPUS-V 4

NORAD 43181 · 2018-014B

PAYLOAD ACTIVE UNKNOWN

§ Identity

Operator
Country
CIS
Launch date
2018-02-01
Launch site
VOSTO
Launch vehicle
Mass (kg)
RCS (m²)

External: N2YO · Heavens-Above · Gunter

§ Orbital elements

Epoch: 2026-09-09T03:49:06.800736Z

Period
94.59 min
Inclination
97.3489°
Eccentricity
0.0001893
Mean motion
15.22325886 rev/d
Perigee alt
497.5 km
Apogee alt
500.1 km
Semi-major
6,877.0 km
B*
5.7776e-5
RAAN
156.0749°
Arg perigee
86.3058°
Mean anomaly
273.8395°
Rev number
47,751

§ Raw data

KANOPUS-V 41 43181U 18014B   26252.15910649  .00001263  00000+0  57776-4 0  99902 43181  97.3489 156.0749 0001893  86.3058 273.8395 15.22325886477515

JSON: /api/v1/satellites/43181 · /tle

For live sub-satellite position, see the globe view (requires WebGL).

§ Visibility from observer

Set your observer location to see the next 7 days of passes ≥ 10°. The values pass through the URL so the page stays shareable.

No JS? Fill the form by hand. The geolocation button needs JavaScript.